Union Aéronautique de la Côte d'Azur

Union Aéronautique de la Côte d'Azur
UACA
Approuvé A.T.O. EASA – N°FR.ATO.0108

UNION des aéroclubs
Cannes “Ailes d’Azur”, Nice “Côte d’Azur”, Grasse “St Exupery”, ACCA “Francis Séverac”

Un cache-pitot se trouve à bord de chaque avion. Pensez à le mettre en place à la fin de chaque vol !

Avant de quitter l'avion, vérifiez que vous n'emportez pas la checklist

Un vol ne s'entreprend qu'avec un pare-brise parfaitement propre, il en va de votre sécurité, et de celle des autres

Après chaque vol, merci de mettre en place les pares-soleil!


Météo à Cannes:
METAR
LFMD 011530Z AUTO 23010KT 190V260 9999 BKN088 BKN170 22/17 Q1006 NOSIG =
LFMD 011400Z 0115/0215 22012KT 9999 FEW030 BKN250 BECMG 0117/0119 VRB04KT BKN020 TEMPO 0119/0122 SHRA BKN012 FEW020TCU TEMPO 0204/0209 3000 RA BKN010 TEMPO 0205/0209 01010KT 1000 TSRA OVC010 SCT012CB TEMPO 0206/0215 RA BKN010 BECMG 0209/0210 16015G25KT TEMPO 0210/0215 17020G30KT 1000 TSRA OVC010 SCT012CB

TAF
LFMD 011400Z 0115/0215 22012KT 9999 FEW030 BKN250 BECMG 0117/0119 VRB04KT BKN020 TEMPO 0119/0122 SHRA BKN012 FEW020TCU TEMPO 0204/0209 3000 RA BKN010 TEMPO 0205/0209 01010KT 1000 TSRA OVC010 SCT012CB TEMPO 0206/0215 RA BKN010 BECMG 0209/0210 16015G25KT TEMPO 0210/0215 17020G30KT 1000 TSRA OVC010 SCT012CB =

SR / SS: 05:30 / 17:12 UTC (LFMD 2020-10-01)